TDRS 10

Last updated on May 23, 2019, 3:05 a.m. UTC

1 27566U 02055A   19142.76152295  .00000083  00000-0  00000+0 0  9992
2 27566   6.2369  55.3656 0009169 298.2692 349.3661  1.00268563 60332
UTC
Height (km)
Latitude
Longitude
Inclination
Orbital Period
UTC large
Height (km)
Speed (km/s)
/
Latitude / Longitude
Inclination (degrees)
Orbital Period (minutes)
Azimuth
Elevation
Range (km)
Doppler Factor
iOS Compass Heading
iOS Angle

Next 30 passes for location: Hong Kong

Rise time Rise Azimuth (degrees) Set time Set Azimuth (degrees) Duration Max altitude (degrees)

No matching passes for this satellites